Weather History for Providence, RI

Change the Weather History Date:

Tuesday, January 28, 2014

  Actual Average Record
Temperature  
Mean Temperature 17 °F 29 °F  
Max Temperature 21 °F 38 °F 63 °F (1947)
Min Temperature 12 °F 21 °F -5 °F (1935)
Degree Days  
Heating Degree Days 48 36  
Month to date heating degree days 1051 1004  
Since 1 July heating degree days 3130 3031  
Cooling Degree Days 0 0  
Month to date cooling degree days 0 0  
Year to date cooling degree days 0 0  
Moisture  
Dew Point -9 °F    
Average Humidity 30    
Maximum Humidity 38    
Minimum Humidity 22    
Precipitation  
Precipitation 0.00 in 0.12 in 1.90 in (1943)
Month to date precipitation 3.62 3.49  
Year to date precipitation 3.62 3.49  
Sea Level Pressure  
Sea Level Pressure 30.24 in    
Wind  
Wind Speed 9 mph (WNW)    
Max Wind Speed 20 mph    
Max Gust Speed 28 mph    
Visibility 10 miles    
Events      
T = Trace of Precipitation, MM = Missing Value Source: NWS Daily Summary

Daily Weather History Graph

Daily Weather History Graph

Search for Another Location

Airport:

Trip Planner

Search our weather history database for the weather conditions in past years. The results will help you decide how hot, cold, wet, or windy it might be!

Date:

Astronomy

Jan. 28, 2014 Rise Set
Actual Time 7:01 AM EST 4:56 PM EST
Civil Twilight 6:31 AM EST 5:25 PM EST
Nautical Twilight 5:58 AM EST 5:59 PM EST
Astronomical Twilight 5:25 AM EST 6:32 PM EST
Moon 4:41 AM EST (1/28) 2:42 PM EST (1/28)
Length of Visible Light 10h 53m
Length of Day
9h 54m
Waning Crescent, 7% of the Moon is Illuminated
Jan 28
Waning Crescent
Jan 30
New
Feb 6
First Quarter
Feb 14
Full
Feb 22
Last Quarter

Hourly Weather History & Observations

Time (EST) Temp. Windchill Dew Point Humidity Pressure Visibility Wind Dir Wind Speed Gust Speed Precip Events Conditions
12:51 AM 19.0 °F 9.0 °F -6.0 °F 33% 30.04 in 10.0 mi WNW 8.1 mph - N/A   Clear
1:51 AM 18.0 °F 3.6 °F -6.0 °F 35% 30.06 in 10.0 mi NW 15.0 mph 18.4 mph N/A   Clear
2:51 AM 17.1 °F 3.0 °F -8.0 °F 33% 30.09 in 10.0 mi NW 13.8 mph 20.7 mph N/A   Clear
3:51 AM 16.0 °F 4.4 °F -8.0 °F 34% 30.13 in 10.0 mi WNW 9.2 mph 20.7 mph N/A   Clear
4:51 AM 15.1 °F -1.6 °F -9.9 °F 32% 30.17 in 10.0 mi WNW 18.4 mph 21.9 mph N/A   Clear
5:51 AM 12.9 °F -0.2 °F -9.9 °F 35% 30.20 in 10.0 mi WNW 10.4 mph 17.3 mph N/A   Clear
6:51 AM 12.0 °F -1.3 °F -11.9 °F 34% 30.25 in 10.0 mi NW 10.4 mph - N/A   Scattered Clouds
7:51 AM 12.9 °F -0.9 °F -11.9 °F 32% 30.27 in 10.0 mi NW 11.5 mph - N/A   Scattered Clouds
8:51 AM 14.0 °F -1.4 °F -11.9 °F 31% 30.31 in 10.0 mi WNW 15.0 mph 27.6 mph N/A   Mostly Cloudy
9:51 AM 15.1 °F 0.5 °F -11.9 °F 29% 30.31 in 10.0 mi NW 13.8 mph - N/A   Mostly Cloudy
10:51 AM 18.0 °F 6.9 °F -13.0 °F 25% 30.32 in 10.0 mi NW 9.2 mph - N/A   Mostly Cloudy
11:51 AM 19.0 °F 5.6 °F -14.1 °F 22% 30.30 in 10.0 mi WNW 13.8 mph 24.2 mph N/A   Mostly Cloudy
12:51 PM 19.9 °F 7.3 °F -11.0 °F 25% 30.27 in 10.0 mi WNW 12.7 mph 17.3 mph N/A   Scattered Clouds
1:51 PM 19.0 °F 11.1 °F -11.9 °F 25% 30.27 in 10.0 mi NNW 5.8 mph - N/A   Mostly Cloudy
2:51 PM 19.9 °F 13.4 °F -11.0 °F 25% 30.27 in 10.0 mi Variable 4.6 mph - N/A   Mostly Cloudy
3:51 PM 19.0 °F 12.3 °F -11.0 °F 26% 30.30 in 10.0 mi WNW 4.6 mph - N/A   Mostly Cloudy
4:51 PM 19.0 °F 13.9 °F -9.9 °F 27% 30.31 in 10.0 mi West 3.5 mph - N/A   Overcast
5:51 PM 18.0 °F 7.7 °F -8.0 °F 31% 30.32 in 10.0 mi West 8.1 mph - N/A   Overcast
6:51 PM 18.0 °F 8.7 °F -8.0 °F 31% 30.31 in 10.0 mi WNW 6.9 mph - N/A   Overcast
7:51 PM 17.1 °F 10.0 °F -7.1 °F 34% 30.31 in 10.0 mi West 4.6 mph - N/A   Overcast
8:51 PM 17.1 °F 11.7 °F -7.1 °F 34% 30.30 in 10.0 mi West 3.5 mph - N/A   Overcast
9:51 PM 17.1 °F 11.7 °F -7.1 °F 34% 30.27 in 10.0 mi NW 3.5 mph - N/A   Overcast
10:51 PM 17.1 °F 11.7 °F -6.0 °F 36% 30.25 in 10.0 mi NNW 3.5 mph - N/A   Overcast
11:51 PM 17.1 °F 10.0 °F -7.1 °F 34% 30.23 in 10.0 mi NW 4.6 mph - N/A   Overcast